Tracking 31027 objects as of 19-Jul-2025
HD Live streaming from Space Station
objects crossing your sky now

STARLINK-5879

Track STARLINK-5879 now!
10-day predictions
STARLINK-5879 is classified as:


NORAD ID: 57153
Int'l Code: 2023-090BE
Perigee: 565.4 km
Apogee: 567.0 km
Inclination: 43.0 °
Period: 95.8 minutes
Semi major axis: 6937 km
RCS: Unknown
Launch date: June 23, 2023
Source: United States (US)
Launch site: AIR FORCE EASTERN TEST RANGE (AFETR)
Your satellite tracking list
LANDSAT 5
Track 1 satellite(s)




NASA's NSSDC Master Catalog

Two Line Element Set (TLE):
1 57153U 23090BE  25199.38037265  .00000353  00000-0  41243-4 0  9994
2 57153  43.0052  82.0802 0001178 271.3704  88.7004 15.02531796114965
Source of the keplerian elements: AFSPC